This is the latest recevied weather packets stored in our database for station/object WX5HOT. If no packets are shown the sender has not sent any weather packets the latest 1 day(s).
| Time | Temp. | Humidity | Pressure | Rain* | Wind** | Luminosity | Snow |
|---|---|---|---|---|---|---|---|
| 1778019683 | 20° C | 99% | 1056 hPa | 0 mm | 2.68 m/s, 186° | 125 W/m² | - |
| 1778019380 | 20.56° C | 99% | 1056 hPa | 0 mm | 1.79 m/s, 182° | 162 W/m² | - |
| 1778019076 | 20.56° C | 99% | 1055.9 hPa | 0 mm | 1.34 m/s, 177° | 216 W/m² | - |
| 1778018774 | 20° C | 99% | 1056.3 hPa | 0 mm | 1.34 m/s, 185° | 205 W/m² | - |
| 1778018471 | 20° C | 99% | 1056.4 hPa | 0 mm | 1.34 m/s, 189° | 179 W/m² | - |
| 1778018169 | 20° C | 99% | 1056.6 hPa | 0 mm | 1.34 m/s, 184° | 168 W/m² | - |
| 1778017867 | 20° C | 99% | 1056.6 hPa | 0 mm | 0.89 m/s, 183° | 233 W/m² | - |
| 1778017565 | 20° C | 99% | 1056.7 hPa | 0 mm | 0.89 m/s, 187° | 228 W/m² | - |
| 1778017262 | 20° C | 99% | 1056.7 hPa | 0 mm | 1.34 m/s, 179° | 99 W/m² | - |
| 1778016959 | 20° C | 99% | 1056.9 hPa | 0 mm | 0.89 m/s, 189° | 54 W/m² | - |
| 1778016656 | 20° C | 99% | 1056.9 hPa | 0 mm | 0.89 m/s, 183° | 58 W/m² | - |
| 1778016352 | 20° C | 99% | 1056.7 hPa | 0 mm | 1.34 m/s, 177° | 197 W/m² | - |
| 1778016050 | 20° C | 99% | 1056.5 hPa | 0 mm | 1.34 m/s, 182° | 210 W/m² | - |
| 1778015746 | 20° C | 99% | 1056.4 hPa | 0 mm | 0.89 m/s, 192° | 253 W/m² | - |
| 1778015443 | 20° C | 99% | 1056.4 hPa | 0 mm | 0.89 m/s, 187° | 262 W/m² | - |
| 1778015139 | 20° C | 99% | 1056.3 hPa | 0 mm | 1.34 m/s, 188° | 209 W/m² | - |
| 1778014837 | 20° C | 99% | 1056.1 hPa | 0 mm | 1.79 m/s, 181° | 245 W/m² | - |
| 1778014535 | 20° C | 99% | 1056.5 hPa | 0 mm | 1.34 m/s, 175° | 351 W/m² | - |
| 1778014231 | 19.44° C | 99% | 1056.7 hPa | 0 mm | 1.79 m/s, 185° | 452 W/m² | - |
| 1778013929 | 18.89° C | 99% | 1057.1 hPa | 0 mm | 1.34 m/s, 177° | 155 W/m² | - |
| 1778013626 | 18.89° C | 99% | 1057.4 hPa | 0 mm | 1.79 m/s, 183° | 56 W/m² | - |
| 1778013323 | 18.89° C | 99% | 1057.5 hPa | 0 mm | 0.89 m/s, 188° | 152 W/m² | - |
| 1778013020 | 18.89° C | 99% | 1057.5 hPa | 0 mm | 0.89 m/s, 194° | 130 W/m² | - |
| 1778012716 | 19.44° C | 99% | 1057.3 hPa | 0 mm | 0.45 m/s, 185° | 80 W/m² | - |
| 1778012412 | 19.44° C | 99% | 1057.2 hPa | 0 mm | 0.89 m/s, 183° | 99 W/m² | - |
* Rain latest hour (hover to see other rain measurements)
** Current wind speed in m/s (hover to see current wind gust speed)